Home > Time Zones > World Clock > Weather > Macau > Macau > Past weeks

Flag for Macau Weather past 2 weeks in Macau, Macau

Now
84 °F

Passing clouds.


Feels Like: 94 °F
Forecast: 81 / 91 °F
Wind: 7 mph from Southwest

Location: Taipa

Current Time: Sep 3, 2014 at 12:09:06 AM

Latest Report: Sep 2, 2014 at 11:30 PM


Visibility: N/A

Pressure: 29.83 "Hg

Humidity: 79%

Dew point: 77 °F

Location of MacauLocation

Historic Weather in Macau — Graph

°F

Macau temperature yesterday

Maximum temperature yesterday: 88 °F (at 11:30 AM)
Minimum temperature yesterday: 82 °F (at 1:00 AM)
Average temperature yesterday: 85 °F

Past Weeks' High & Low Weather Summary

 TemperatureHumidityPressure
High90 °F (Aug 25, 3:30 PM)100% (Aug 19, 5:00 PM)29.95 "Hg (Aug 19, 5:00 PM)
Low73 °F (Aug 19, 5:00 PM)62% (Aug 30, 11:30 AM)29.71 "Hg (Aug 19, 3:00 PM)
Average84 °F82%29.82 "Hg
* Reported Aug 18 10:00 PM — Sep 2 10:30 PM, Macau, Weather by CustomWeather, © 2014

Note: Actual official high and low records may vary slightly from our data, if they occured in-between our weather recording intervals... More about our weather records

Advertising

Macau weather history for previous 24 hours

 ConditionsComfort  
Time TempWeatherWind HumidityBarometerVisibility
10:30 PM
Sep 2
84 °FPassing clouds.7 mph79%29.83 "HgN/A
10:00 PM84 °FPassing clouds.7 mph79%29.83 "HgN/A
9:30 PM84 °FPassing clouds.9 mph79%29.83 "HgN/A
9:00 PM84 °FClear.8 mph74%29.83 "Hg10 mi
8:30 PM84 °FClear.7 mph79%29.80 "Hg10 mi
8:00 PM86 °FPassing clouds.8 mph75%29.80 "HgN/A
7:30 PM86 °FClear.8 mph75%29.80 "Hg10 mi
7:00 PM86 °FClear.9 mph75%29.80 "Hg10 mi
6:30 PM86 °FPassing clouds.10 mph75%29.77 "HgN/A
6:00 PM86 °FPassing clouds.9 mph75%29.77 "HgN/A
5:30 PM88 °FPassing clouds.9 mph66%29.77 "HgN/A
5:00 PM88 °FPassing clouds.9 mph66%29.80 "HgN/A
4:30 PM88 °FPassing clouds.9 mph70%29.80 "HgN/A
4:00 PM88 °FPassing clouds.9 mph70%29.80 "HgN/A
3:30 PM88 °FPassing clouds.8 mph70%29.83 "HgN/A
3:00 PM88 °FPassing clouds.9 mph70%29.83 "HgN/A
2:30 PM88 °FPassing clouds.9 mph70%29.83 "HgN/A
2:00 PM88 °FPassing clouds.9 mph70%29.83 "HgN/A
1:30 PM88 °FScattered clouds.7 mph75%29.86 "HgN/A
1:00 PM88 °FScattered clouds.7 mph70%29.86 "HgN/A
12:30 PM88 °FScattered clouds.8 mph75%29.89 "HgN/A
12:00 PM88 °FScattered clouds.7 mph70%29.89 "HgN/A
11:30 AM88 °FScattered clouds.6 mph70%29.89 "HgN/A
10:30 AM86 °FScattered clouds.6 mph75%29.89 "HgN/A
10:00 AM86 °FScattered clouds.5 mph79%29.89 "HgN/A
9:30 AM86 °FScattered clouds.3 mph79%29.89 "HgN/A
9:00 AM86 °FScattered clouds.3 mph79%29.89 "HgN/A
8:30 AM86 °FScattered clouds.3 mph79%29.89 "HgN/A
8:00 AM84 °FScattered clouds.2 mph84%29.86 "HgN/A
7:30 AM84 °FScattered clouds.2 mph84%29.86 "HgN/A
7:00 AM82 °FPassing clouds.3 mph89%29.83 "HgN/A
6:30 AM82 °FScattered clouds.5 mph89%29.83 "HgN/A
6:00 AM82 °FPassing clouds.3 mph89%29.83 "HgN/A
5:30 AM82 °FPassing clouds.6 mph89%29.80 "HgN/A
5:00 AM82 °FPassing clouds.6 mph89%29.83 "HgN/A
4:30 AM82 °FPassing clouds.5 mph89%29.83 "HgN/A
4:00 AM82 °FPassing clouds.3 mph89%29.83 "HgN/A
3:30 AM82 °FPassing clouds.5 mph89%29.83 "HgN/A
3:00 AM82 °FPassing clouds.5 mph89%29.83 "HgN/A
2:30 AM82 °FPassing clouds.5 mph89%29.83 "HgN/A
2:00 AM82 °FPassing clouds.6 mph89%29.83 "HgN/A
1:30 AM82 °FPassing clouds.7 mph89%29.83 "HgN/A
1:00 AM82 °FPassing clouds.7 mph84%29.86 "HgN/A
12:00 AM84 °FPassing clouds.7 mph84%29.89 "HgN/A
Weather by CustomWeather, © 2014

See weather overviewHow to use our weather pages